AirNav   Everest Fuels
 
 1243 users online  

44TE Shirley Williams Airport
Kingsland, Texas, USA

GOING TO KINGSLAND?


FAA INFORMATION EFFECTIVE 05 DECEMBER 2019

Location

FAA Identifier: 44TE
Lat/Long: 30-41-00.6620N 098-25-01.1040W
30-41.011033N 098-25.018400W
30.6835172,-98.4169733
(estimated)
Elevation: 880 ft. / 268 m (estimated)
Variation: 07E (1985)
From city: 2 miles NE of KINGSLAND, TX
Time zone: UTC -6 (UTC -5 during Daylight Saving Time)
Zip code: 78639

Airport Operations

Airport use: Private use. Permission required prior to landing
Activation date: 06/1959
Control tower: no
ARTCC: HOUSTON CENTER
FSS: SAN ANGELO FLIGHT SERVICE STATION
Attendance: UNATNDD
Wind indicator: yes
Segmented circle: no

Airport Communications

WX ASOS at BMQ (10 nm E): 119.925 (512-756-7277)
WX AWOS-3 at DZB (10 nm S): 119.775 (830-598-2059)
WX AWOS-3 at AQO (14 nm NW): 119.425 (325-247-2189)

Nearby radio navigation aids

VOR radial/distance  VOR name  Freq  Var
LLOr102/20.3LLANO VORTAC108.2008E
STVr020/32.3STONEWALL VORTAC113.8008E
AGJr200/33.3GOOCH SPRINGS VORTAC112.5005E
GRKr229/37.5GRAY VOR/DME111.8007E

Airport Services

Airframe service: NONE
Powerplant service: NONE

Runway Information

Runway 16/34

Dimensions: 2600 x 100 ft. / 792 x 30 m
Surface: turf
RUNWAY 16  RUNWAY 34
Traffic pattern: leftleft
Obstructions: treespline

Airport Ownership and Management from official FAA records

Ownership: Privately-owned
Owner: RIVER VALLEY RANCH AIR STRIP ASSOC
106 TAIL WIND LANE
KINGSLAND, TX 77863
Phone 512-827-9943
Manager: RIVER VALLEY RANCH AIR STRIP ASSOC
106 TAILWIND LN
KINGSLAND, TX 78639
Phone 512-827-9943

Airport Operational Statistics

Aircraft based on the field: 19
Single engine airplanes: 16
Ultralights: 3
    

Additional Remarks

FOR CD CTC HOUSTON ARTCC AT 281-230-5622.

Instrument Procedures

There are no published instrument procedures at 44TE.

Some nearby airports with instrument procedures:

KBMQ - Burnet Municipal Airport-Kate Craddock Field (10 nm E)
KAQO - Llano Municipal Airport (14 nm NW)
KRYW - Lago Vista TX - Rusty Allen Airport (26 nm SE)
KLZZ - Lampasas Airport (28 nm NE)
3R9 - Lakeway Airpark (29 nm SE)
 
Loc | Ops | Rwys | IFR | FBO | Links
Com | Nav | Svcs | Stats | Notes
Area around 44TE (Shirley Williams Airport)
 
Road maps at: MapQuest Bing Google
 
Aerial photo
WARNING: Photo may not be current or correct
Aerial photo of 44TE (Shirley Williams Airport)
Photo taken 11-Apr-2007

Do you have a better or more recent aerial photo of Shirley Williams Airport that you would like to share? If so, please send us your photo.

 
Sectional chart

 
Airport distance calculator
Flying to Shirley Williams Airport? Find the distance to fly.

From to 44TE

Sunrise and sunset
Times for 10-Dec-2019
 Local
(UTC-6)
 Zulu
(UTC)
Morning civil twilight06:5512:55
Sunrise07:2113:21
Sunset17:3223:32
Evening civil twilight17:5823:58

Current date and time
Zulu (UTC)  10-Dec-2019 14:17:49
Local (UTC-6)  10-Dec-2019 08:17:49
 
METAR
KDZB 
10nm S 
101400Z AUTO 35008KT 2 1/2SM +RA BKN009 OVC014 04/04 A3021 RMK AO2 P0002
KBMQ 
10nm E 
101353Z AUTO 36008G17KT 6SM RA BR SCT007 BKN043 OVC075 03/02 A3022 RMK AO2 SLP231 P0013 T00280017
KAQO 
14nm NW 
101355Z AUTO 33008KT 9SM FEW001 BKN010 OVC013 04/03 A3027 RMK AO2 P0001 PWINO
TAF
KGRK 
38nm NE 
101150Z 1011/1114 01010G15KT 8000 -SHRA OVC011 510052 QNH3010INS TEMPO 1012/1014 01010G20KT 8000 -TSRA OVC007CB BECMG 1017/1018 01010G15KT 6000 -RA OVC010 540009 540909 QNH3023INS BECMG 1021/1022 36010G15KT 6000 -RA SCT015 BKN030 510033 QNH3027INS BECMG 1101/1102 03006KT 9999 NSW SCT030 QNH3033INS TX22/1021Z TN02/1015Z
KAUS 
44nm SE 
101120Z 1012/1118 36017G27KT P6SM -RA OVC025 FM101500 01013G23KT 4SM -RA OVC009 FM102000 01012KT P6SM BKN010 FM110000 01010KT P6SM BKN025 FM110400 36006KT P6SM SCT045
NOTAMs
Click for the latest NOTAMs
NOTAMs are issued by the DoD/FAA and will open in a separate window not controlled by AirNav.

 

 
 

Would you like to see your business listed on this page?

 If your business provides an interesting product or service to pilots, flight crews, aircraft, or users of the Shirley Williams Airport, you should consider listing it here.  To start the listing process, click on the button below
 
Add a business
 

Other Pages about Shirley Williams Airport

Update a link
 
Copyright © AirNav, LLC. All rights reserved. Privacy Policy  Contact